Flag Weather past 2 weeks in Bournemouth, England, United Kingdom

Now
48 °F

Light rain. Partly sunny.


Feels Like: 43 °F
Forecast: 41 / 51 °F
Wind: 12 mph from North

Location: Bournemouth Airport

Current Time: Nov 23, 2014 at 10:01:23 AM

Latest Report: Nov 23, 2014 at 9:20 AM


Visibility: 6 mi

Pressure: 30.04 "Hg

Humidity: 94%

Dew point: 46 °F

Location of BournemouthLocation

Historic Weather in Bournemouth — Graph

°F

Bournemouth temperature yesterday

Maximum temperature yesterday: 57 °F (at 1:20 AM)
Minimum temperature yesterday: 50 °F (at 8:20 PM)
Average temperature yesterday: 56 °F

Past Weeks' High & Low Weather Summary

 TemperatureHumidityPressure
High59 °F (Nov 13, 1:50 PM)100% (Nov 8, 9:50 PM)30.24 "Hg (Nov 8, 9:50 PM)
Low36 °F (Nov 9, 6:20 AM)67% (Nov 14, 11:50 AM)29.24 "Hg (Nov 12, 1:20 AM)
Average51 °F89%29.65 "Hg
* Reported Nov 8 8:20 AM — Nov 23 8:50 AM, Bournemouth, Weather by CustomWeather, © 2014

Note: Actual official high and low records may vary slightly from our data, if they occured in-between our weather recording intervals... More about our weather records

Advertising

Bournemouth weather history for previous 24 hours

 ConditionsComfort  
Time TempWeatherWind HumidityBarometerVisibility
8:50 AM
Nov 23
48 °FLight rain. Broken clouds.12 mph94%30.01 "Hg6 mi
8:20 AM48 °FRain. Broken clouds.8 mph94%30.04 "Hg4 mi
7:50 AM48 °FRain. Partly sunny.9 mph94%30.01 "Hg4 mi
7:20 AM48 °FRain. Passing clouds.7 mph94%30.01 "Hg4 mi
6:50 AM48 °FRain. Passing clouds.8 mph94%30.01 "Hg4 mi
6:20 AM48 °FLight rain. Passing clouds.9 mph100%29.98 "HgN/A
5:50 AM48 °FLight rain. Passing clouds.9 mph100%29.98 "Hg5 mi
5:20 AM48 °FLight rain. Passing clouds.10 mph100%29.98 "Hg4 mi
4:50 AM50 °FRain. Passing clouds.8 mph94%29.98 "Hg4 mi
4:20 AM50 °FRain. Fog.7 mph94%29.98 "Hg3 mi
9:20 PM
Nov 22
50 °FSleet. Fog.3 mph100%29.95 "Hg2 mi
8:50 PM50 °FSleet. Fog.3 mph100%29.98 "Hg2 mi
8:20 PM50 °FFog.1 mph100%29.95 "Hg2 mi
7:50 PM52 °FFog.2 mph100%29.95 "Hg2 mi
7:20 PM54 °FClear.1 mph94%29.95 "Hg5 mi
6:50 PM52 °FPassing clouds.3 mph94%29.95 "HgN/A
6:20 PM52 °FPassing clouds.6 mph94%29.95 "HgN/A
5:50 PM55 °FFog.2 mph94%29.95 "Hg5 mi
5:20 PM55 °FFog.2 mph100%29.92 "Hg6 mi
4:50 PM57 °FPassing clouds.2 mph94%29.92 "HgN/A
4:20 PM57 °FSleet. Partly cloudy.5 mph94%29.92 "HgN/A
3:50 PM57 °FPartly sunny.2 mph94%29.92 "HgN/A
3:20 PM57 °FScattered showers. Broken clouds.6 mph94%29.92 "Hg5 mi
2:50 PM57 °FScattered showers. Broken clouds.6 mph94%29.89 "Hg5 mi
2:20 PM57 °FBroken clouds.8 mph100%29.89 "Hg5 mi
1:50 PM57 °FBroken clouds.8 mph100%29.89 "Hg4 mi
1:20 PM57 °FPartly sunny.9 mph100%29.89 "Hg4 mi
12:50 PM57 °FPartly sunny.9 mph94%29.89 "Hg4 mi
12:20 PM57 °FPartly sunny.8 mph100%29.89 "Hg4 mi
11:50 AM57 °FBroken clouds.7 mph100%29.89 "Hg4 mi
11:20 AM57 °FBroken clouds.8 mph100%29.89 "Hg4 mi
10:50 AM57 °FPartly sunny.9 mph100%29.89 "Hg4 mi
10:20 AM57 °FFog.8 mph100%29.89 "Hg3 mi
Weather by CustomWeather, © 2014

See weather overviewHow to use our weather pages